Location: Newark
(7.0858°N, 171.3717°E)
Time: 02:52:52
(UTC+00:00)

Transit 2A - Pass Details

Date: 29 November 2020
Orbit: 598 x 960 km, 66.7° (Epoch: 20 January)

Event Time Altitude Azimuth Distance (km) Brightness Sun altitude
Rises 16:00:03 0° 340° (NNW) 2,979 - -35.8°
Reaches altitude 10° 16:02:24 10° 341° (NNW) 2,026 - -35.2°
Maximum altitude 16:06:56 87° 71° (ENE) 616 - -34.2°
Exits shadow 16:10:31 15° 159° (SSE) 1,646 8.1 -33.3°
Drops below altitude 10° 16:11:15 10° 159° (SSE) 1,934 8.5 -33.2°
Sets 16:13:27 0° 159° (SSE) 2,832 9.5 -32.7°
